Location: Kumla
(59.1265°N, 15.1401°E)
Time: 00:25:23
(UTC+01:00)

Tiros 1 despin weight - Pass Details

Date: 11 December 2023
Orbit: 581 x 624 km, 48.2° (Epoch: 01 March)

Event Time Altitude Azimuth Distance (km) Brightness Sun altitude
Rises 17:59:41 0° 239° (WSW) 2,810 ? -20.5°
Reaches altitude 10° 18:02:27 10° 222° (SW) 1,904 ? -20.8°
Maximum altitude 18:05:34 19° 177° (S) 1,393 ? -21.2°
Enters shadow 18:06:36 18° 158° (SSE) 1,458 ? -21.4°
